RH
68 69 62 65 68 67 67 65 63 63 61 56 49 41 35 28 24 21 21 18 18 21 21 21 22 20 20 22 21 18 19 19 18 16 15 15 16 17 19 22 28 29 28
73 72 68 66 65 67 66 66 67 64 57 51 43 35 29 27 24 26 24 22 21 19 21 22 21 21 21 19 19 20 20 22 21 21 23 20 18 18 18 17 18 20 23
77 76 73 72 70 68 67 66 64 61 54 44 37 32 30 28 27 29 27 26 25 22 21 20 21 20 21 21 21 21 20 21 20 23 31 33 26 19 19 19 19 19 19
83 86 79 76 75 72 67 66 64 59 48 38 34 33 34 35 32 31 30 29 28 26 23 22 21 24 24 23 24 24 25 25 24 31 36 37 30 22 21 21 22 22 25
82 88 85 79 79 78 75 70 64 55 47 39 36 38 36 35 36 34 32 31 30 29 25 25 25 28 28 27 28 28 31 30 31 38 37 37 33 26 23 23 23 22 22
87 91 91 85 86 84 80 73 64 56 51 42 40 44 40 37 39 38 35 34 34 31 28 27 29 32 31 30 30 33 31 29 38 40 41 34 32 22 22 22 23 22 21
90 95 90 87 88 86 79 73 67 58 51 47 49 46 39 42 44 43 41 38 37 35 31 30 34 36 33 34 35 34 31 31 38 37 40 34 28 20 19 16 15 17 18
97 91 86 86 85 86 83 74 65 57 52 50 48 48 47 48 45 43 40 41 40 37 36 36 39 37 38 37 39 36 31 32 37 34 35 27 21 16 14 14 14 14 14
85 94 87 92 95 87 85 69 62 58 57 51 51 52 49 50 48 48 48 45 43 42 40 42 42 43 44 41 40 35 30 29 33 27 31 30 20 18 16 15 16 16 16
83 87 97 98 95 84 73 71 69 64 54 54 54 54 53 51 48 48 46 45 43 40 43 44 47 48 52 47 38 34 28 28 27 29 32 28 27 25 18 16 17 16 16
85 87 91 96 92 81 84 84 67 60 59 58 58 58 57 56 56 51 46 44 44 45 47 48 51 55 57 46 40 34 31 29 27 28 29 24 28 29 28 19 19 18 18
78 84 84 87 90 88 86 83 75 75 68 63 64 63 61 58 53 48 47 48 46 48 52 55 58 60 59 47 41 34 30 28 26 25 26 23 30 29 30 28 22 20 20
75 75 82 85 86 87 85 91 92 80 73 76 72 61 56 52 51 50 45 49 56 60 60 61 63 63 60 49 39 33 30 29 27 27 25 23 22 30 30 29 28 25 22
75 89 82 88 90 93 98 91 86 86 83 71 64 60 56 52 51 53 54 59 62 66 65 66 66 63 54 42 35 34 32 29 28 28 26 23 21 27 25 28 28 30 28
83 86 93 93 96 95 94 89 91 81 75 66 59 57 54 56 56 56 61 68 67 66 64 63 63 58 47 41 37 36 33 30 30 32 31 25 25 29 32 33 32 35 35
89 94 97 94 94 93 92 93 83 71 61 57 56 54 57 54 53 66 71 70 70 64 61 57 57 53 43 41 37 37 33 31 30 30 32 31 27 29 33 33 37 39 39
76 81 88 95 95 92 89 78 70 65 60 57 54 52 54 64 71 68 69 67 66 60 58 54 52 46 44 40 37 36 34 32 32 32 34 37 41 36 35 37 37 39 41
58 65 68 73 80 79 70 57 55 54 47 49 52 63 73 77 71 73 76 74 64 59 52 53 50 46 43 38 36 36 37 37 38 40 41 42 43 48 47 43 38 38 40
52 53 54 55 53 46 46 45 45 50 58 60 68 77 83 84 81 80 72 64 62 56 53 51 50 47 42 39 40 43 45 48 48 48 46 48 47 46 44 42 37 37 38
54 55 56 54 51 48 51 51 55 59 59 61 69 78 84 78 73 75 65 58 59 54 49 50 50 47 42 45 49 52 54 55 56 55 53 54 55 51 49 45 45 46 46
58 60 60 64 65 62 60 57 54 56 60 62 69 74 83 81 74 61 55 55 55 52 49 52 54 51 49 52 58 61 62 61 59 57 56 53 53 51 50 47 48 52 50
53 53 55 54 57 60 61 59 57 56 62 63 68 81 85 86 84 70 67 62 61 57 59 60 61 57 56 58 65 70 72 70 62 59 59 56 55 55 55 55 54 53 55
50 50 51 52 56 59 62 66 66 69 68 65 71 79 88 91 91 86 77 71 69 68 66 67 64 63 61 64 73 81 81 81 71 65 63 65 62 62 59 56 58 57 55
46 47 48 49 51 55 60 68 66 67 70 65 65 79 90 92 94 93 85 80 79 76 73 72 68 69 70 75 83 87 90 82 71 69 70 65 63 67 63 62 64 57 45
48 51 50 50 51 55 59 65 70 71 71 75 71 74 86 86 91 90 89 86 85 86 82 79 74 76 78 86 95 90 85 83 78 77 66 66 65 64 64 63 52 46 38
53 55 55 57 60 61 66 67 71 77 80 72 62 60 67 76 87 92 93 93 92 89 86 84 81 88 87 91 93 88 89 87 81 70 69 68 66 63 60 53 50 40 35